Time,TemperatureF,DewpointF,PressureIn,WindDirection,WindDirectionDegrees,WindSpeedMPH,WindSpeedGustMPH,Humidity,HourlyPrecipIn,Conditions,Clouds,dailyrainin,SolarRadiationWatts/m^2,SoftwareType,DateUTC
2013-07-04 00:01:00,69.1,49.1,29.59,SW,214,0.0,2.3,49,0.00,SCT,SCT,0.00,0.0,WeatherDisplay:10.37,2013-07-04 06:01:00,
2013-07-04 00:06:00,69.0,49.0,29.57,SW,214,1.5,2.3,49,0.00,SCT,SCT,0.00,0.0,WeatherDisplay:10.37,2013-07-04 06:06:00,
2013-07-04 00:11:00,68.8,48.9,29.57,SW,214,1.4,1.4,49,0.00,SCT,SCT,0.00,0.0,WeatherDisplay:10.37,2013-07-04 06:11:00,
2013-07-04 00:16:00,68.7,48.8,29.57,SSW,192,1.9,4.0,49,0.00,SCT,SCT,0.00,0.0,WeatherDisplay:10.37,2013-07-04 06:16:00,
2013-07-04 00:21:00,68.6,48.7,29.57,SSW,193,1.6,4.0,49,0.00,SCT,SCT,0.00,0.0,WeatherDisplay:10.37,2013-07-04 06:21:00,
2013-07-04 00:26:00,68.5,48.6,29.57,SSW,192,0.1,3.4,49,0.00,SCT,SCT,0.00,0.0,WeatherDisplay:10.37,2013-07-04 06:26:00,
2013-07-04 00:31:00,68.4,49.0,29.58,SSW,192,0.0,0.0,50,0.00,SCT,SCT,0.00,0.0,WeatherDisplay:10.37,2013-07-04 06:31:00,
2013-07-04 00:36:00,68.3,48.9,29.58,SSW,202,0.1,1.1,50,0.00,SCT,SCT,0.00,0.0,WeatherDisplay:10.37,2013-07-04 06:36:00,
2013-07-04 00:41:00,68.1,48.8,29.58,SSW,202,0.0,2.3,50,0.00,SCT,SCT,0.00,0.0,WeatherDisplay:10.37,2013-07-04 06:41:00,
2013-07-04 00:46:00,68.0,48.7,29.58,SSW,202,0.6,3.4,50,0.00,SCT,SCT,0.00,0.0,WeatherDisplay:10.37,2013-07-04 06:46:00,
2013-07-04 00:51:00,67.9,48.6,29.58,SSW,202,0.0,0.0,50,0.00,SCT,SCT,0.00,0.0,WeatherDisplay:10.37,2013-07-04 06:51:00,
2013-07-04 00:56:00,67.7,48.4,29.58,SSW,202,1.7,3.4,50,0.00,SCT,SCT,0.00,0.0,WeatherDisplay:10.37,2013-07-04 06:56:00,
2013-07-04 01:01:00,67.6,48.8,29.58,SSW,202,0.0,1.1,51,0.00,SCT,SCT,0.00,0.0,WeatherDisplay:10.37,2013-07-04 07:01:00,
2013-07-04 01:06:00,67.5,48.7,29.57,SSW,202,0.0,0.0,51,0.00,SCT,SCT,0.00,0.0,WeatherDisplay:10.37,2013-07-04 07:06:00,
2013-07-04 01:11:00,67.4,48.6,29.57,SSW,202,0.3,0.0,51,0.00,SCT,SCT,0.00,0.0,WeatherDisplay:10.37,2013-07-04 07:11:00,
2013-07-04 01:16:00,67.2,48.5,29.58,SSW,202,0.2,1.1,51,0.00,SCT,SCT,0.00,0.0,WeatherDisplay:10.37,2013-07-04 07:16:00,
2013-07-04 01:21:00,67.0,48.8,29.57,SSW,202,0.3,2.3,52,0.00,SCT,SCT,0.00,0.0,WeatherDisplay:10.37,2013-07-04 07:21:00,
2013-07-04 01:26:00,66.8,48.6,29.57,SSW,202,1.4,3.4,52,0.00,SCT,SCT,0.00,0.0,WeatherDisplay:10.37,2013-07-04 07:26:00,
2013-07-04 01:31:00,66.6,48.9,29.57,SSW,202,1.3,2.3,53,0.00,SCT,SCT,0.00,0.0,WeatherDisplay:10.37,2013-07-04 07:31:00,
2013-07-04 01:36:00,66.4,48.7,29.58,South,183,2.4,3.4,53,0.00,SCT,SCT,0.00,0.0,WeatherDisplay:10.37,2013-07-04 07:36:00,
2013-07-04 01:41:00,66.3,48.7,29.58,South,184,1.6,3.0,53,0.00,SCT,SCT,0.00,0.0,WeatherDisplay:10.37,2013-07-04 07:41:00,
2013-07-04 01:46:00,66.3,48.7,29.58,South,187,1.4,2.3,53,0.00,SCT,SCT,0.00,0.0,WeatherDisplay:10.37,2013-07-04 07:46:00,
2013-07-04 01:51:00,66.3,48.7,29.58,South,187,0.7,2.3,53,0.00,SCT,SCT,0.00,0.0,WeatherDisplay:10.37,2013-07-04 07:51:00,
2013-07-04 01:56:00,66.3,48.7,29.58,South,187,0.0,1.1,53,0.00,SCT,SCT,0.00,0.0,WeatherDisplay:10.37,2013-07-04 07:56:00,
2013-07-04 02:01:00,66.3,48.7,29.58,South,187,0.1,2.3,53,0.00,SCT,SCT,0.00,0.0,WeatherDisplay:10.37,2013-07-04 08:01:00,
2013-07-04 02:06:00,66.2,48.6,29.57,South,187,0.7,2.3,53,0.00,SCT,SCT,0.00,0.0,WeatherDisplay:10.37,2013-07-04 08:06:00,
2013-07-04 02:11:00,66.2,48.6,29.57,South,187,0.3,2.3,53,0.00,SCT,SCT,0.00,0.0,WeatherDisplay:10.37,2013-07-04 08:11:00,
2013-07-04 02:16:00,66.1,48.5,29.57,South,187,0.0,0.0,53,0.00,SCT,SCT,0.00,0.0,WeatherDisplay:10.37,2013-07-04 08:16:00,
2013-07-04 02:21:00,66.1,48.5,29.57,South,187,0.0,0.0,53,0.00,SCT,SCT,0.00,0.0,WeatherDisplay:10.37,2013-07-04 08:21:00,
2013-07-04 02:26:00,66.0,48.4,29.57,South,188,2.3,3.0,53,0.00,SCT,SCT,0.00,0.0,WeatherDisplay:10.37,2013-07-04 08:26:00,
2013-07-04 02:31:00,65.9,48.3,29.57,South,188,0.0,3.4,53,0.00,SCT,SCT,0.00,0.0,WeatherDisplay:10.37,2013-07-04 08:31:00,
2013-07-04 02:36:00,65.9,48.3,29.57,South,188,1.1,2.3,53,0.00,SCT,SCT,0.00,0.0,WeatherDisplay:10.37,2013-07-04 08:36:00,
2013-07-04 02:41:00,65.8,48.2,29.57,South,188,0.0,1.1,53,0.00,SCT,SCT,0.00,0.0,WeatherDisplay:10.37,2013-07-04 08:41:00,
2013-07-04 02:46:00,65.8,48.2,29.57,South,188,0.0,0.0,53,0.00,SCT,SCT,0.00,0.0,WeatherDisplay:10.37,2013-07-04 08:46:00,
2013-07-04 02:51:00,65.8,48.7,29.57,South,188,0.1,2.3,54,0.00,SCT,SCT,0.00,0.0,WeatherDisplay:10.37,2013-07-04 08:51:00,
2013-07-04 02:56:00,65.7,48.6,29.57,South,188,0.1,1.1,54,0.00,SCT,SCT,0.00,0.0,WeatherDisplay:10.37,2013-07-04 08:56:00,
2013-07-04 03:01:00,65.6,48.5,29.57,South,188,1.9,2.3,54,0.00,SCT,SCT,0.00,0.0,WeatherDisplay:10.37,2013-07-04 09:01:00,
2013-07-04 03:06:00,65.4,48.8,29.57,South,188,0.1,3.4,55,0.00,SCT,SCT,0.00,0.0,WeatherDisplay:10.37,2013-07-04 09:06:00,
2013-07-04 03:11:00,65.2,48.6,29.57,South,188,0.7,2.3,55,0.00,SCT,SCT,0.00,0.0,WeatherDisplay:10.37,2013-07-04 09:11:00,
2013-07-04 03:16:00,64.9,48.3,29.57,South,188,0.0,2.3,55,0.00,SCT,SCT,0.00,0.0,WeatherDisplay:10.37,2013-07-04 09:16:00,
2013-07-04 03:21:00,64.7,48.2,29.58,South,188,0.0,1.1,55,0.00,SCT,SCT,0.00,0.0,WeatherDisplay:10.37,2013-07-04 09:21:00,
2013-07-04 03:26:00,64.5,48.0,29.58,South,188,1.1,3.4,55,0.00,SCT,SCT,0.00,0.0,WeatherDisplay:10.37,2013-07-04 09:26:00,
2013-07-04 03:31:00,64.2,48.2,29.59,South,188,1.2,3.4,56,0.00,SCT,SCT,0.00,0.0,WeatherDisplay:10.37,2013-07-04 09:31:00,
2013-07-04 03:36:00,64.0,48.5,29.58,South,188,1.3,3.4,57,0.00,SCT,SCT,0.00,0.0,WeatherDisplay:10.37,2013-07-04 09:36:00,
2013-07-04 03:41:00,63.8,48.3,29.58,South,188,0.1,2.3,57,0.00,SCT,SCT,0.00,0.0,WeatherDisplay:10.37,2013-07-04 09:41:00,
2013-07-04 03:46:00,63.6,48.1,29.58,South,188,0.7,2.3,57,0.00,SCT,SCT,0.00,0.0,WeatherDisplay:10.37,2013-07-04 09:46:00,
2013-07-04 03:51:00,63.4,48.4,29.58,South,188,0.6,2.0,58,0.00,SCT,SCT,0.00,0.0,WeatherDisplay:10.37,2013-07-04 09:51:00,
2013-07-04 03:56:00,63.2,48.6,29.58,South,188,1.7,2.3,59,0.00,SCT,SCT,0.00,0.0,WeatherDisplay:10.37,2013-07-04 09:56:00,
2013-07-04 04:01:00,63.0,48.4,29.58,South,188,0.8,3.4,59,0.00,SCT,SCT,0.00,0.0,WeatherDisplay:10.37,2013-07-04 10:01:00,
2013-07-04 04:06:00,62.9,48.3,29.58,SSE,163,3.0,4.6,59,0.00,SCT,SCT,0.00,0.0,WeatherDisplay:10.37,2013-07-04 10:06:00,
2013-07-04 04:11:00,62.8,48.7,29.58,SSE,161,1.8,2.3,60,0.00,SCT,SCT,0.00,0.0,WeatherDisplay:10.37,2013-07-04 10:11:00,
2013-07-04 04:16:00,62.7,49.1,29.58,SSE,161,1.6,3.4,61,0.00,SCT,SCT,0.00,0.0,WeatherDisplay:10.37,2013-07-04 10:16:00,
2013-07-04 04:21:00,62.5,48.9,29.58,SSE,161,0.9,2.3,61,0.00,SCT,SCT,0.00,0.0,WeatherDisplay:10.37,2013-07-04 10:21:00,
2013-07-04 04:26:00,62.3,48.7,29.59,SSE,161,0.6,2.3,61,0.00,SCT,SCT,0.00,0.0,WeatherDisplay:10.37,2013-07-04 10:26:00,
2013-07-04 04:31:00,62.1,48.5,29.59,SSE,161,1.1,3.4,61,0.00,SCT,SCT,0.00,0.0,WeatherDisplay:10.37,2013-07-04 10:31:00,
2013-07-04 04:36:00,62.0,48.8,29.58,SSE,161,0.9,2.3,62,0.00,SCT,SCT,0.00,0.0,WeatherDisplay:10.37,2013-07-04 10:36:00,
2013-07-04 04:41:00,61.8,48.6,29.59,SSE,161,0.5,2.3,62,0.00,SCT,SCT,0.00,0.0,WeatherDisplay:10.37,2013-07-04 10:41:00,
2013-07-04 04:46:00,61.7,48.5,29.59,SSE,161,0.0,2.0,62,0.00,SCT,SCT,0.00,0.0,WeatherDisplay:10.37,2013-07-04 10:46:00,
2013-07-04 04:51:00,61.6,48.4,29.59,SSE,161,1.0,2.3,62,0.00,SCT,SCT,0.00,0.0,WeatherDisplay:10.37,2013-07-04 10:51:00,
2013-07-04 04:56:00,61.6,48.4,29.59,SSE,161,0.0,0.0,62,0.00,SCT,SCT,0.00,0.0,WeatherDisplay:10.37,2013-07-04 10:56:00,
2013-07-04 05:01:00,61.5,48.4,29.59,SSE,161,0.1,0.0,62,0.00,SCT,SCT,0.00,0.0,WeatherDisplay:10.37,2013-07-04 11:01:00,
2013-07-04 05:06:00,61.4,48.7,29.61,SSE,161,0.1,2.3,63,0.00,SCT,SCT,0.00,0.0,WeatherDisplay:10.37,2013-07-04 11:06:00,
2013-07-04 05:11:00,61.3,48.6,29.61,SSE,161,0.0,2.3,63,0.00,SCT,SCT,0.00,0.0,WeatherDisplay:10.37,2013-07-04 11:11:00,
2013-07-04 05:16:00,61.2,48.5,29.61,SSE,161,0.0,0.0,63,0.00,SCT,SCT,0.00,0.0,WeatherDisplay:10.37,2013-07-04 11:16:00,
2013-07-04 05:21:00,61.2,48.5,29.61,SSE,161,0.7,2.3,63,0.00,SCT,SCT,0.00,0.0,WeatherDisplay:10.37,2013-07-04 11:21:00,
2013-07-04 05:26:00,61.0,48.3,29.62,SSE,161,0.0,1.1,63,0.00,SCT,SCT,0.00,0.0,WeatherDisplay:10.37,2013-07-04 11:26:00,
2013-07-04 05:31:00,60.9,48.2,29.62,SSE,161,0.0,1.1,63,0.00,SCT,SCT,0.00,0.0,WeatherDisplay:10.37,2013-07-04 11:31:00,
2013-07-04 05:36:00,60.8,48.1,29.61,SSE,161,0.0,1.1,63,0.00,SCT,SCT,0.00,5.0,WeatherDisplay:10.37,2013-07-04 11:36:00,
2013-07-04 05:41:00,60.7,48.0,29.62,SSE,161,0.0,0.0,63,0.00,SCT,SCT,0.00,7.0,WeatherDisplay:10.37,2013-07-04 11:41:00,
2013-07-04 05:46:00,60.5,47.8,29.62,SSE,161,0.0,0.0,63,0.00,SCT,SCT,0.00,11.0,WeatherDisplay:10.37,2013-07-04 11:46:00,
2013-07-04 05:51:00,60.5,47.8,29.62,SSE,161,0.0,0.0,63,0.00,SCT,SCT,0.00,14.0,WeatherDisplay:10.37,2013-07-04 11:51:00,
2013-07-04 05:56:00,60.4,47.7,29.62,SSE,161,0.2,1.1,63,0.00,SCT,SCT,0.00,18.0,WeatherDisplay:10.37,2013-07-04 11:56:00,
2013-07-04 06:01:00,60.3,48.1,29.62,SSE,167,1.2,3.4,64,0.00,FEW,FEW,0.00,21.0,WeatherDisplay:10.37,2013-07-04 12:01:00,
2013-07-04 06:06:00,60.3,47.6,29.64,SSE,167,0.0,0.0,63,0.00,FEW,FEW,0.00,23.0,WeatherDisplay:10.37,2013-07-04 12:06:00,
2013-07-04 06:11:00,60.3,48.1,29.64,SSE,167,0.4,2.0,64,0.00,FEW,FEW,0.00,26.0,WeatherDisplay:10.37,2013-07-04 12:11:00,
2013-07-04 06:16:00,60.4,48.2,29.64,SSE,167,0.8,2.0,64,0.00,FEW,FEW,0.00,30.0,WeatherDisplay:10.37,2013-07-04 12:16:00,
2013-07-04 06:21:00,60.4,48.2,29.64,SSE,167,0.0,0.0,64,0.00,FEW,FEW,0.00,32.0,WeatherDisplay:10.37,2013-07-04 12:21:00,
2013-07-04 06:26:00,60.5,48.3,29.64,SSE,167,0.0,0.0,64,0.00,FEW,FEW,0.00,35.0,WeatherDisplay:10.37,2013-07-04 12:26:00,
2013-07-04 06:31:00,60.5,48.3,29.64,SSE,167,0.0,0.0,64,0.00,FEW,FEW,0.00,97.0,WeatherDisplay:10.37,2013-07-04 12:31:00,
2013-07-04 06:36:00,60.6,48.4,29.64,SSE,167,0.1,2.3,64,0.00,FEW,FEW,0.00,127.0,WeatherDisplay:10.37,2013-07-04 12:36:00,
2013-07-04 06:41:00,60.8,48.5,29.64,South,171,0.1,2.3,64,0.00,FEW,FEW,0.00,142.0,WeatherDisplay:10.37,2013-07-04 12:41:00,
2013-07-04 06:46:00,61.0,48.7,29.64,South,171,0.0,0.0,64,0.00,FEW,FEW,0.00,156.0,WeatherDisplay:10.37,2013-07-04 12:46:00,
2013-07-04 06:51:00,61.4,49.1,29.64,South,171,0.5,3.4,64,0.00,FEW,FEW,0.00,171.0,WeatherDisplay:10.37,2013-07-04 12:51:00,
2013-07-04 06:56:00,61.9,49.6,29.64,South,171,0.0,0.0,64,0.00,FEW,FEW,0.00,186.0,WeatherDisplay:10.37,2013-07-04 12:56:00,
2013-07-04 07:01:00,62.2,49.9,29.64,South,171,0.0,0.0,64,0.00,FEW,FEW,0.00,202.0,WeatherDisplay:10.37,2013-07-04 13:01:00,
2013-07-04 07:06:00,62.6,49.8,29.65,South,171,0.0,0.0,63,0.00,FEW,FEW,0.00,220.0,WeatherDisplay:10.37,2013-07-04 13:06:00,
2013-07-04 07:11:00,62.9,50.1,29.66,South,171,0.0,0.0,63,0.00,FEW,FEW,0.00,232.0,WeatherDisplay:10.37,2013-07-04 13:11:00,
2013-07-04 07:16:00,63.3,50.1,29.66,South,171,0.0,1.1,62,0.00,FEW,FEW,0.00,251.0,WeatherDisplay:10.37,2013-07-04 13:16:00,
2013-07-04 07:21:00,63.8,49.6,29.66,South,171,1.2,3.4,60,0.00,FEW,FEW,0.00,265.0,WeatherDisplay:10.37,2013-07-04 13:21:00,
2013-07-04 07:26:00,64.3,49.2,29.66,South,172,0.1,3.4,58,0.00,FEW,FEW,0.00,281.0,WeatherDisplay:10.37,2013-07-04 13:26:00,
2013-07-04 07:31:00,64.9,49.3,29.65,South,175,0.0,3.4,57,0.00,FEW,FEW,0.00,306.0,WeatherDisplay:10.37,2013-07-04 13:31:00,
2013-07-04 07:36:00,65.5,49.4,29.65,South,176,1.9,4.0,56,0.00,FEW,FEW,0.00,325.0,WeatherDisplay:10.37,2013-07-04 13:36:00,
2013-07-04 07:41:00,66.1,49.0,29.65,South,177,0.8,3.4,54,0.00,FEW,FEW,0.00,369.0,WeatherDisplay:10.37,2013-07-04 13:41:00,
2013-07-04 07:46:00,66.7,49.5,29.64,South,177,0.4,3.4,54,0.00,FEW,FEW,0.00,220.0,WeatherDisplay:10.37,2013-07-04 13:46:00,
2013-07-04 07:51:00,67.1,49.9,29.65,South,177,0.1,2.3,54,0.00,FEW,FEW,0.00,171.0,WeatherDisplay:10.37,2013-07-04 13:51:00,
2013-07-04 07:56:00,67.5,50.3,29.65,South,176,1.3,1.3,54,0.00,FEW,FEW,0.00,315.0,WeatherDisplay:10.37,2013-07-04 13:56:00,
2013-07-04 08:01:00,68.0,49.7,29.65,South,177,0.0,2.3,52,0.00,SCT,SCT,0.00,209.0,WeatherDisplay:10.37,2013-07-04 14:01:00,
2013-07-04 08:06:00,68.4,49.6,29.68,South,177,1.5,3.4,51,0.00,SCT,SCT,0.00,209.0,WeatherDisplay:10.37,2013-07-04 14:06:00,
2013-07-04 08:11:00,68.8,49.9,29.68,South,176,1.4,1.4,51,0.00,SCT,SCT,0.00,220.0,WeatherDisplay:10.37,2013-07-04 14:11:00,
2013-07-04 08:16:00,69.2,50.3,29.68,South,176,0.8,3.4,51,0.00,SCT,SCT,0.00,188.0,WeatherDisplay:10.37,2013-07-04 14:16:00,
2013-07-04 08:21:00,69.8,50.9,29.67,SSW,192,1.4,3.4,51,0.00,SCT,SCT,0.00,188.0,WeatherDisplay:10.37,2013-07-04 14:21:00,
2013-07-04 08:26:00,70.5,51.0,29.67,South,188,0.8,1.1,50,0.00,SCT,SCT,0.00,492.0,WeatherDisplay:10.37,2013-07-04 14:26:00,
2013-07-04 08:31:00,71.2,51.1,29.67,South,188,1.2,2.3,49,0.00,SCT,SCT,0.00,501.0,WeatherDisplay:10.37,2013-07-04 14:31:00,
2013-07-04 08:36:00,71.9,51.1,29.67,South,188,0.9,3.4,48,0.00,SCT,SCT,0.00,517.0,WeatherDisplay:10.37,2013-07-04 14:36:00,
2013-07-04 08:41:00,72.7,51.9,29.66,South,189,0.7,1.1,48,0.00,SCT,SCT,0.00,534.0,WeatherDisplay:10.37,2013-07-04 14:41:00,
2013-07-04 08:46:00,73.5,51.4,29.67,South,190,0.9,4.6,46,0.00,SCT,SCT,0.00,547.0,WeatherDisplay:10.37,2013-07-04 14:46:00,
2013-07-04 08:51:00,73.9,50.6,29.66,South,188,0.3,4.6,44,0.00,SCT,SCT,0.00,564.0,WeatherDisplay:10.37,2013-07-04 14:51:00,
2013-07-04 08:56:00,74.5,51.2,29.65,SSW,208,0.4,1.1,44,0.00,SCT,SCT,0.00,577.0,WeatherDisplay:10.37,2013-07-04 14:56:00,
2013-07-04 09:01:00,75.2,50.5,29.65,SSW,208,0.2,1.1,42,0.00,SCT,SCT,0.00,599.0,WeatherDisplay:10.37,2013-07-04 15:01:00,
2013-07-04 09:06:00,75.8,51.7,29.65,SSW,206,0.9,1.1,43,0.00,SCT,SCT,0.00,633.0,WeatherDisplay:10.37,2013-07-04 15:06:00,
2013-07-04 09:11:00,76.6,51.8,29.65,SSW,205,0.5,2.3,42,0.00,SCT,SCT,0.00,638.0,WeatherDisplay:10.37,2013-07-04 15:11:00,
2013-07-04 09:16:00,77.1,50.9,29.65,SSW,206,0.1,3.4,40,0.00,SCT,SCT,0.00,608.0,WeatherDisplay:10.37,2013-07-04 15:16:00,
2013-07-04 09:21:00,77.5,51.9,29.64,SSW,208,2.1,3.4,41,0.00,SCT,SCT,0.00,659.0,WeatherDisplay:10.37,2013-07-04 15:21:00,
2013-07-04 09:26:00,77.9,52.3,29.64,SSW,208,1.5,4.0,41,0.00,SCT,SCT,0.00,661.0,WeatherDisplay:10.37,2013-07-04 15:26:00,
2013-07-04 09:31:00,78.4,52.1,29.63,SSW,208,0.0,1.1,40,0.00,SCT,SCT,0.00,673.0,WeatherDisplay:10.37,2013-07-04 15:31:00,
2013-07-04 09:36:00,78.9,52.5,29.63,SW,233,3.1,3.4,40,0.00,SCT,SCT,0.00,687.0,WeatherDisplay:10.37,2013-07-04 15:36:00,
2013-07-04 09:41:00,79.3,52.9,29.63,SW,233,0.0,1.1,40,0.00,SCT,SCT,0.00,698.0,WeatherDisplay:10.37,2013-07-04 15:41:00,
2013-07-04 09:46:00,79.8,51.2,29.62,SW,215,1.2,2.3,37,0.00,SCT,SCT,0.00,712.0,WeatherDisplay:10.37,2013-07-04 15:46:00,
2013-07-04 09:51:00,80.2,51.6,29.62,SW,215,0.1,1.1,37,0.00,SCT,SCT,0.00,728.0,WeatherDisplay:10.37,2013-07-04 15:51:00,
2013-07-04 09:56:00,80.6,51.2,29.62,SW,215,1.6,3.4,36,0.00,SCT,SCT,0.00,742.0,WeatherDisplay:10.37,2013-07-04 15:56:00,
2013-07-04 10:01:00,81.0,50.8,29.62,SW,215,1.0,2.3,35,0.00,SCT,SCT,0.00,754.0,WeatherDisplay:10.37,2013-07-04 16:01:00,
2013-07-04 10:06:00,81.4,51.1,29.63,SW,219,0.7,4.0,35,0.00,SCT,SCT,0.00,765.0,WeatherDisplay:10.37,2013-07-04 16:06:00,
2013-07-04 10:11:00,81.8,50.7,29.62,SW,222,0.7,2.3,34,0.00,SCT,SCT,0.00,773.0,WeatherDisplay:10.37,2013-07-04 16:11:00,
2013-07-04 10:16:00,82.0,49.2,29.62,SW,223,0.1,1.1,32,0.00,SCT,SCT,0.00,786.0,WeatherDisplay:10.37,2013-07-04 16:16:00,
2013-07-04 10:21:00,82.4,49.6,29.62,SW,222,1.0,2.3,32,0.00,SCT,SCT,0.00,798.0,WeatherDisplay:10.37,2013-07-04 16:21:00,
2013-07-04 10:26:00,83.2,50.3,29.62,SW,223,0.0,0.0,32,0.00,SCT,SCT,0.00,810.0,WeatherDisplay:10.37,2013-07-04 16:26:00,
2013-07-04 10:31:00,83.8,51.6,29.60,WNW,303,0.2,1.1,33,0.00,SCT,SCT,0.00,821.0,WeatherDisplay:10.37,2013-07-04 16:31:00,
2013-07-04 10:36:00,84.3,50.4,29.60,NNE,16,1.7,4.6,31,0.00,SCT,SCT,0.00,835.0,WeatherDisplay:10.37,2013-07-04 16:36:00,
2013-07-04 10:41:00,84.3,49.5,29.60,NNE,13,0.6,0.0,30,0.00,SCT,SCT,0.00,846.0,WeatherDisplay:10.37,2013-07-04 16:41:00,
2013-07-04 10:46:00,84.8,50.8,29.60,NE,48,3.8,3.8,31,0.00,SCT,SCT,0.00,856.0,WeatherDisplay:10.37,2013-07-04 16:46:00,
2013-07-04 10:51:00,85.3,51.2,29.60,ENE,68,1.1,3.4,31,0.00,SCT,SCT,0.00,865.0,WeatherDisplay:10.37,2013-07-04 16:51:00,
2013-07-04 10:56:00,85.4,51.3,29.60,WNW,293,0.3,3.4,31,0.00,SCT,SCT,0.00,872.0,WeatherDisplay:10.37,2013-07-04 16:56:00,
2013-07-04 11:01:00,85.4,49.5,29.60,NNE,30,2.4,4.6,29,0.00,FEW,FEW,0.00,882.0,WeatherDisplay:10.37,2013-07-04 17:01:00,
2013-07-04 11:06:00,85.5,50.5,29.60,NNE,21,3.5,7.0,30,0.00,FEW,FEW,0.00,889.0,WeatherDisplay:10.37,2013-07-04 17:06:00,
2013-07-04 11:11:00,85.8,50.8,29.60,ENE,64,2.2,3.4,30,0.00,FEW,FEW,0.00,898.0,WeatherDisplay:10.37,2013-07-04 17:11:00,
2013-07-04 11:16:00,86.1,50.1,29.59,East,82,2.9,3.4,29,0.00,FEW,FEW,0.00,907.0,WeatherDisplay:10.37,2013-07-04 17:16:00,
2013-07-04 11:21:00,86.3,49.4,29.59,NE,38,6.0,10.3,28,0.00,FEW,FEW,0.00,912.0,WeatherDisplay:10.37,2013-07-04 17:21:00,
2013-07-04 11:26:00,86.1,50.1,29.59,East,99,3.7,5.8,29,0.00,FEW,FEW,0.00,921.0,WeatherDisplay:10.37,2013-07-04 17:26:00,
2013-07-04 11:31:00,86.0,50.0,29.59,NNE,32,7.5,11.5,29,0.00,FEW,FEW,0.00,932.0,WeatherDisplay:10.37,2013-07-04 17:31:00,
2013-07-04 11:36:00,85.4,49.5,29.59,NNE,30,6.9,10.3,29,0.00,FEW,FEW,0.00,935.0,WeatherDisplay:10.37,2013-07-04 17:36:00,
2013-07-04 11:41:00,85.5,49.6,29.59,NNE,18,0.5,2.3,29,0.00,FEW,FEW,0.00,942.0,WeatherDisplay:10.37,2013-07-04 17:41:00,
2013-07-04 11:46:00,86.0,50.0,29.59,ENE,69,2.9,11.5,29,0.00,FEW,FEW,0.00,947.0,WeatherDisplay:10.37,2013-07-04 17:46:00,
2013-07-04 11:51:00,86.4,50.4,29.59,NNE,26,6.7,8.0,29,0.00,FEW,FEW,0.00,954.0,WeatherDisplay:10.37,2013-07-04 17:51:00,
2013-07-04 11:56:00,86.3,51.2,29.58,NNE,22,4.4,5.8,30,0.00,FEW,FEW,0.00,960.0,WeatherDisplay:10.37,2013-07-04 17:56:00,
2013-07-04 12:01:00,87.1,51.9,29.58,North,360,2.1,3.4,30,0.00,FEW,FEW,0.00,963.0,WeatherDisplay:10.37,2013-07-04 18:01:00,
2013-07-04 12:06:00,86.9,49.9,29.58,NNE,13,2.9,6.9,28,0.00,FEW,FEW,0.00,972.0,WeatherDisplay:10.37,2013-07-04 18:06:00,
2013-07-04 12:11:00,86.8,50.7,29.58,NNE,30,0.2,8.1,29,0.00,FEW,FEW,0.00,977.0,WeatherDisplay:10.37,2013-07-04 18:11:00,
2013-07-04 12:16:00,87.1,50.0,29.58,East,90,4.7,5.8,28,0.00,FEW,FEW,0.00,977.0,WeatherDisplay:10.37,2013-07-04 18:16:00,
2013-07-04 12:21:00,86.9,49.9,29.58,East,94,5.0,10.3,28,0.00,FEW,FEW,0.00,986.0,WeatherDisplay:10.37,2013-07-04 18:21:00,
2013-07-04 12:26:00,86.9,49.9,29.58,North,11,8.1,11.5,28,0.00,FEW,FEW,0.00,986.0,WeatherDisplay:10.37,2013-07-04 18:26:00,
2013-07-04 12:31:00,86.9,51.7,29.58,NNE,18,0.9,6.0,30,0.00,FEW,FEW,0.00,988.0,WeatherDisplay:10.37,2013-07-04 18:31:00,
2013-07-04 12:36:00,87.1,50.0,29.58,ENE,61,7.3,9.2,28,0.00,FEW,FEW,0.00,984.0,WeatherDisplay:10.37,2013-07-04 18:36:00,
2013-07-04 12:41:00,87.2,52.0,29.58,ENE,65,0.9,1.1,30,0.00,FEW,FEW,0.00,990.0,WeatherDisplay:10.37,2013-07-04 18:41:00,
2013-07-04 12:46:00,87.8,51.6,29.56,West,274,0.2,5.8,29,0.00,FEW,FEW,0.00,986.0,WeatherDisplay:10.37,2013-07-04 18:46:00,
2013-07-04 12:51:00,88.4,52.1,29.56,North,9,1.2,3.4,29,0.00,FEW,FEW,0.00,1002.0,WeatherDisplay:10.37,2013-07-04 18:51:00,
2013-07-04 12:56:00,88.9,51.6,29.56,North,360,3.0,4.6,28,0.00,FEW,FEW,0.00,988.0,WeatherDisplay:10.37,2013-07-04 18:56:00,
2013-07-04 13:01:00,89.1,50.8,29.56,NNE,19,2.8,5.8,27,0.00,SCT,SCT,0.00,995.0,WeatherDisplay:10.37,2013-07-04 19:01:00,
2013-07-04 13:06:00,89.0,50.7,29.57,NNE,25,2.3,6.0,27,0.00,SCT,SCT,0.00,1000.0,WeatherDisplay:10.37,2013-07-04 19:06:00,
2013-07-04 13:11:00,88.9,50.6,29.57,NNW,348,2.0,4.6,27,0.00,SCT,SCT,0.00,998.0,WeatherDisplay:10.37,2013-07-04 19:11:00,
2013-07-04 13:16:00,89.3,49.9,29.57,North,11,3.1,4.0,26,0.00,SCT,SCT,0.00,1005.0,WeatherDisplay:10.37,2013-07-04 19:16:00,
2013-07-04 13:21:00,89.2,48.8,29.56,NE,46,0.8,4.6,25,0.00,SCT,SCT,0.00,1002.0,WeatherDisplay:10.37,2013-07-04 19:21:00,
2013-07-04 13:26:00,89.5,50.1,29.55,NE,41,3.9,6.0,26,0.00,SCT,SCT,0.00,1020.0,WeatherDisplay:10.37,2013-07-04 19:26:00,
2013-07-04 13:31:00,89.9,49.4,29.55,North,5,1.2,3.4,25,0.00,SCT,SCT,0.00,1035.0,WeatherDisplay:10.37,2013-07-04 19:31:00,
2013-07-04 13:36:00,90.0,50.5,29.55,NNW,329,0.5,3.4,26,0.00,SCT,SCT,0.00,1018.0,WeatherDisplay:10.37,2013-07-04 19:36:00,
2013-07-04 13:41:00,90.0,50.5,29.55,WNW,284,0.3,4.6,26,0.00,SCT,SCT,0.00,1051.0,WeatherDisplay:10.37,2013-07-04 19:41:00,
2013-07-04 13:46:00,90.2,50.7,29.54,NNE,30,0.7,2.3,26,0.00,SCT,SCT,0.00,1067.0,WeatherDisplay:10.37,2013-07-04 19:46:00,
2013-07-04 13:51:00,91.0,51.4,29.54,NE,36,4.0,5.0,26,0.00,SCT,SCT,0.00,1053.0,WeatherDisplay:10.37,2013-07-04 19:51:00,
2013-07-04 13:56:00,91.0,51.4,29.54,NNE,30,1.0,4.6,26,0.00,SCT,SCT,0.00,1046.0,WeatherDisplay:10.37,2013-07-04 19:56:00,
2013-07-04 14:01:00,91.0,50.3,29.55,NNW,331,0.7,3.0,25,0.00,SCT,SCT,0.00,1044.0,WeatherDisplay:10.37,2013-07-04 20:01:00,
2013-07-04 14:06:00,90.9,50.2,29.54,NE,55,0.5,2.3,25,0.00,SCT,SCT,0.00,1067.0,WeatherDisplay:10.37,2013-07-04 20:06:00,
2013-07-04 14:11:00,91.0,50.3,29.54,North,355,1.8,6.9,25,0.00,SCT,SCT,0.00,1120.0,WeatherDisplay:10.37,2013-07-04 20:11:00,
2013-07-04 14:16:00,91.0,49.2,29.54,NNE,29,7.5,7.5,24,0.00,SCT,SCT,0.00,1000.0,WeatherDisplay:10.37,2013-07-04 20:16:00,
2013-07-04 14:21:00,90.8,49.0,29.54,ENE,64,3.1,5.8,24,0.00,SCT,SCT,0.00,993.0,WeatherDisplay:10.37,2013-07-04 20:21:00,
2013-07-04 14:26:00,91.0,51.4,29.53,East,96,0.8,4.6,26,0.00,SCT,SCT,0.00,990.0,WeatherDisplay:10.37,2013-07-04 20:26:00,
2013-07-04 14:31:00,91.4,50.6,29.54,ESE,105,2.3,4.6,25,0.00,SCT,SCT,0.00,960.0,WeatherDisplay:10.37,2013-07-04 20:31:00,
2013-07-04 14:36:00,91.3,48.3,29.53,NE,47,5.1,16.1,23,0.00,SCT,SCT,0.00,951.0,WeatherDisplay:10.37,2013-07-04 20:36:00,
2013-07-04 14:41:00,91.2,49.4,29.53,NW,324,7.0,7.0,24,0.00,SCT,SCT,0.00,960.0,WeatherDisplay:10.37,2013-07-04 20:41:00,
2013-07-04 14:46:00,91.2,50.5,29.54,NE,37,2.1,9.0,25,0.00,SCT,SCT,0.00,949.0,WeatherDisplay:10.37,2013-07-04 20:46:00,
2013-07-04 14:51:00,91.3,49.4,29.53,ESE,112,0.8,4.6,24,0.00,SCT,SCT,0.00,976.0,WeatherDisplay:10.37,2013-07-04 20:51:00,
2013-07-04 14:56:00,91.2,50.5,29.53,West,266,1.5,5.8,25,0.00,SCT,SCT,0.00,977.0,WeatherDisplay:10.37,2013-07-04 20:56:00,
2013-07-04 15:01:00,91.3,49.4,29.53,NNE,25,3.0,9.2,24,0.00,SCT,SCT,0.00,962.0,WeatherDisplay:10.37,2013-07-04 21:01:00,
2013-07-04 15:06:00,91.2,49.4,29.54,NNE,20,5.1,6.9,24,0.00,SCT,SCT,0.00,967.0,WeatherDisplay:10.37,2013-07-04 21:06:00,
2013-07-04 15:11:00,91.4,50.6,29.55,NNE,31,1.5,5.8,25,0.00,SCT,SCT,0.00,905.0,WeatherDisplay:10.37,2013-07-04 21:11:00,
2013-07-04 15:16:00,91.3,49.4,29.54,NE,46,2.5,4.0,24,0.00,SCT,SCT,0.00,262.0,WeatherDisplay:10.37,2013-07-04 21:16:00,
2013-07-04 15:21:00,91.1,49.3,29.54,NNE,17,2.7,11.5,24,0.00,SCT,SCT,0.00,918.0,WeatherDisplay:10.37,2013-07-04 21:21:00,
2013-07-04 15:26:00,91.2,48.2,29.54,NE,47,2.0,3.4,23,0.00,SCT,SCT,0.00,882.0,WeatherDisplay:10.37,2013-07-04 21:26:00,
2013-07-04 15:31:00,91.3,48.3,29.53,NE,44,0.1,3.4,23,0.00,SCT,SCT,0.00,896.0,WeatherDisplay:10.37,2013-07-04 21:31:00,
2013-07-04 15:36:00,91.4,48.4,29.53,NNE,21,4.2,5.0,23,0.00,SCT,SCT,0.00,313.0,WeatherDisplay:10.37,2013-07-04 21:36:00,
2013-07-04 15:41:00,91.3,48.3,29.53,NNE,33,4.8,10.3,23,0.00,SCT,SCT,0.00,977.0,WeatherDisplay:10.37,2013-07-04 21:41:00,
2013-07-04 15:46:00,91.5,49.6,29.53,ENE,72,0.1,1.1,24,0.00,SCT,SCT,0.00,308.0,WeatherDisplay:10.37,2013-07-04 21:46:00,
2013-07-04 15:51:00,91.2,49.4,29.54,North,355,4.6,10.3,24,0.00,SCT,SCT,0.00,237.0,WeatherDisplay:10.37,2013-07-04 21:51:00,
2013-07-04 15:56:00,90.7,47.8,29.53,NE,42,2.1,6.9,23,0.00,SCT,SCT,0.00,229.0,WeatherDisplay:10.37,2013-07-04 21:56:00,
2013-07-04 16:01:00,89.8,48.2,29.54,ENE,71,0.9,6.9,24,0.00,SCT,SCT,0.00,223.0,WeatherDisplay:10.37,2013-07-04 22:01:00,
2013-07-04 16:06:00,89.5,49.0,29.54,WNW,299,0.0,3.4,25,0.00,SCT,SCT,0.00,251.0,WeatherDisplay:10.37,2013-07-04 22:06:00,
2013-07-04 16:11:00,89.2,48.8,29.55,NNW,340,0.0,1.1,25,0.00,SCT,SCT,0.00,288.0,WeatherDisplay:10.37,2013-07-04 22:11:00,
2013-07-04 16:12:00,89.2,49.8,29.55,NNW,340,0.0,0.0,26,0.00,SCT,SCT,0.00,241.0,WeatherDisplay:10.37,2013-07-04 22:12:00,
2013-07-04 16:17:00,89.0,48.6,29.55,NW,311,0.0,0.0,25,0.00,SCT,SCT,0.00,237.0,WeatherDisplay:10.37,2013-07-04 22:17:00,
2013-07-04 16:22:00,89.0,48.6,29.55,West,277,2.4,6.0,25,0.00,SCT,SCT,0.00,796.0,WeatherDisplay:10.37,2013-07-04 22:22:00,
2013-07-04 16:27:00,89.0,49.7,29.55,WNW,283,0.7,2.3,26,0.00,SCT,SCT,0.00,269.0,WeatherDisplay:10.37,2013-07-04 22:27:00,
2013-07-04 16:32:00,89.8,49.3,29.54,WNW,283,0.3,1.1,25,0.00,SCT,SCT,0.00,737.0,WeatherDisplay:10.37,2013-07-04 22:32:00,
2013-07-04 16:37:00,90.3,49.7,29.54,SW,223,4.9,10.3,25,0.00,SCT,SCT,0.00,714.0,WeatherDisplay:10.37,2013-07-04 22:37:00,
2013-07-04 16:42:00,89.9,50.4,29.54,West,278,2.3,6.0,26,0.00,SCT,SCT,0.00,213.0,WeatherDisplay:10.37,2013-07-04 22:42:00,
2013-07-04 16:47:00,89.2,49.8,29.55,SW,232,2.1,3.4,26,0.00,SCT,SCT,0.00,195.0,WeatherDisplay:10.37,2013-07-04 22:47:00,
2013-07-04 16:52:00,88.7,50.4,29.55,WNW,295,0.0,0.0,27,0.00,SCT,SCT,0.00,171.0,WeatherDisplay:10.37,2013-07-04 22:52:00,
2013-07-04 16:57:00,88.1,49.9,29.55,SW,222,0.1,3.4,27,0.00,SCT,SCT,0.00,156.0,WeatherDisplay:10.37,2013-07-04 22:57:00,
2013-07-04 17:02:00,87.6,49.5,29.55,SW,222,0.3,3.4,27,0.00,SCT,SCT,0.00,183.0,WeatherDisplay:10.37,2013-07-04 23:02:00,
2013-07-04 17:07:00,87.3,49.2,29.57,West,277,1.3,4.0,27,0.00,SCT,SCT,0.00,193.0,WeatherDisplay:10.37,2013-07-04 23:07:00,
2013-07-04 17:12:00,86.9,48.9,29.57,WSW,246,2.5,5.8,27,0.00,SCT,SCT,0.00,162.0,WeatherDisplay:10.37,2013-07-04 23:12:00,
2013-07-04 17:17:00,86.4,49.4,29.57,WNW,288,1.9,9.2,28,0.00,SCT,SCT,0.00,155.0,WeatherDisplay:10.37,2013-07-04 23:17:00,
2013-07-04 17:22:00,85.8,49.9,29.57,West,277,1.6,12.6,29,0.00,SCT,SCT,0.00,141.0,WeatherDisplay:10.37,2013-07-04 23:22:00,
2013-07-04 17:27:00,85.2,50.3,29.58,SW,227,1.1,3.4,30,0.00,SCT,SCT,0.00,142.0,WeatherDisplay:10.37,2013-07-04 23:27:00,
2013-07-04 17:32:00,84.8,50.8,29.58,SW,232,1.3,3.4,31,0.00,SCT,SCT,0.00,158.0,WeatherDisplay:10.37,2013-07-04 23:32:00,
2013-07-04 17:37:00,84.3,49.5,29.58,NW,322,6.4,10.3,30,0.00,SCT,SCT,0.00,183.0,WeatherDisplay:10.37,2013-07-04 23:37:00,
2013-07-04 17:42:00,83.8,49.9,29.58,SW,226,3.2,6.9,31,0.00,SCT,SCT,0.00,241.0,WeatherDisplay:10.37,2013-07-04 23:42:00,
2013-07-04 17:47:00,83.6,48.9,29.58,NW,319,3.3,6.9,30,0.00,SCT,SCT,0.00,473.0,WeatherDisplay:10.37,2013-07-04 23:47:00,
2013-07-04 17:52:00,83.9,48.2,29.57,WSW,258,3.4,6.9,29,0.00,SCT,SCT,0.00,299.0,WeatherDisplay:10.37,2013-07-04 23:52:00,
2013-07-04 17:57:00,84.3,49.5,29.58,West,281,0.4,3.4,30,0.00,SCT,SCT,0.00,197.0,WeatherDisplay:10.37,2013-07-04 23:57:00,
2013-07-04 18:02:00,84.6,48.8,29.58,WNW,303,0.8,3.4,29,0.00,BKN,BKN,0.00,185.0,WeatherDisplay:10.37,2013-07-05 00:02:00,
2013-07-04 18:07:00,84.6,46.9,29.57,West,279,0.8,4.6,27,0.00,BKN,BKN,0.00,162.0,WeatherDisplay:10.37,2013-07-05 00:07:00,
2013-07-04 18:12:00,84.6,46.9,29.57,NW,313,1.4,9.2,27,0.00,BKN,BKN,0.00,236.0,WeatherDisplay:10.37,2013-07-05 00:12:00,
2013-07-04 18:17:00,84.8,48.1,29.57,NW,314,3.7,11.5,28,0.00,BKN,BKN,0.00,186.0,WeatherDisplay:10.37,2013-07-05 00:17:00,
2013-07-04 18:22:00,84.6,49.7,29.57,NW,326,5.5,10.3,30,0.00,BKN,BKN,0.00,267.0,WeatherDisplay:10.37,2013-07-05 00:22:00,
2013-07-04 18:27:00,84.1,51.1,29.58,West,271,8.1,19.0,32,0.00,BKN,BKN,0.00,221.0,WeatherDisplay:10.37,2013-07-05 00:27:00,
2013-07-04 18:32:00,83.0,50.9,29.59,WNW,290,9.6,14.9,33,0.00,BKN,BKN,0.00,276.0,WeatherDisplay:10.37,2013-07-05 00:32:00,
2013-07-04 18:37:00,82.1,51.7,29.59,SW,217,1.0,11.5,35,0.00,BKN,BKN,0.00,244.0,WeatherDisplay:10.37,2013-07-05 00:37:00,
2013-07-04 18:42:00,81.5,51.2,29.59,WSW,257,6.1,11.5,35,0.00,BKN,BKN,0.00,209.0,WeatherDisplay:10.37,2013-07-05 00:42:00,
2013-07-04 18:47:00,81.0,50.0,29.60,SW,227,2.9,6.9,34,0.00,BKN,BKN,0.00,153.0,WeatherDisplay:10.37,2013-07-05 00:47:00,
2013-07-04 18:52:00,80.6,50.4,29.60,WSW,250,2.1,6.0,35,0.00,BKN,BKN,0.00,132.0,WeatherDisplay:10.37,2013-07-05 00:52:00,
2013-07-04 18:57:00,80.3,48.6,29.59,WSW,248,4.8,10.3,33,0.00,BKN,BKN,0.00,114.0,WeatherDisplay:10.37,2013-07-05 00:57:00,
2013-07-04 19:02:00,80.1,48.4,29.59,WSW,242,1.4,4.6,33,0.00,BKN,BKN,0.00,102.0,WeatherDisplay:10.37,2013-07-05 01:02:00,
2013-07-04 19:07:00,80.0,48.3,29.56,SW,227,0.7,3.4,33,0.00,BKN,BKN,0.00,98.0,WeatherDisplay:10.37,2013-07-05 01:07:00,
2013-07-04 19:12:00,79.8,48.1,29.56,SW,234,3.5,9.2,33,0.00,BKN,BKN,0.00,97.0,WeatherDisplay:10.37,2013-07-05 01:12:00,
2013-07-04 19:17:00,79.7,48.0,29.57,SSW,211,1.0,4.6,33,0.00,BKN,BKN,0.00,65.0,WeatherDisplay:10.37,2013-07-05 01:17:00,
2013-07-04 19:22:00,79.6,48.0,29.57,WSW,246,0.4,1.1,33,0.00,BKN,BKN,0.00,47.0,WeatherDisplay:10.37,2013-07-05 01:22:00,
2013-07-04 19:27:00,79.4,47.8,29.57,WSW,241,0.7,4.6,33,0.00,BKN,BKN,0.00,46.0,WeatherDisplay:10.37,2013-07-05 01:27:00,
2013-07-04 19:32:00,79.3,47.7,29.58,WNW,300,1.0,3.4,33,0.00,BKN,BKN,0.00,46.0,WeatherDisplay:10.37,2013-07-05 01:32:00,
2013-07-04 19:37:00,79.2,48.4,29.58,WNW,282,0.0,3.4,34,0.00,BKN,BKN,0.00,40.0,WeatherDisplay:10.37,2013-07-05 01:37:00,
2013-07-04 19:42:00,79.0,48.2,29.58,West,263,0.5,2.3,34,0.00,BKN,BKN,0.00,33.0,WeatherDisplay:10.37,2013-07-05 01:42:00,
2013-07-04 19:47:00,78.9,48.1,29.58,SW,223,1.2,3.4,34,0.00,BKN,BKN,0.00,30.0,WeatherDisplay:10.37,2013-07-05 01:47:00,
2013-07-04 19:52:00,78.8,48.1,29.58,SW,223,1.6,3.4,34,0.00,BKN,BKN,0.00,28.0,WeatherDisplay:10.37,2013-07-05 01:52:00,
2013-07-04 19:57:00,78.7,48.0,29.58,SW,235,1.8,3.4,34,0.00,BKN,BKN,0.00,23.0,WeatherDisplay:10.37,2013-07-05 01:57:00,
2013-07-04 20:02:00,78.7,48.7,29.58,West,277,1.6,4.6,35,0.00,BKN,BKN,0.00,18.0,WeatherDisplay:10.37,2013-07-05 02:02:00,
2013-07-04 20:07:00,78.5,48.6,29.54,SW,221,3.0,5.8,35,0.00,BKN,BKN,0.00,14.0,WeatherDisplay:10.37,2013-07-05 02:07:00,
2013-07-04 20:12:00,78.3,48.4,29.55,West,263,0.5,3.4,35,0.00,BKN,BKN,0.00,11.0,WeatherDisplay:10.37,2013-07-05 02:12:00,
2013-07-04 20:17:00,78.2,49.1,29.55,West,261,1.0,2.3,36,0.00,BKN,BKN,0.00,9.0,WeatherDisplay:10.37,2013-07-05 02:17:00,
2013-07-04 20:22:00,78.0,48.9,29.55,WSW,248,0.0,2.3,36,0.00,BKN,BKN,0.00,5.0,WeatherDisplay:10.37,2013-07-05 02:22:00,
2013-07-04 20:27:00,77.8,48.7,29.55,WSW,245,0.0,2.3,36,0.00,BKN,BKN,0.00,0.0,WeatherDisplay:10.37,2013-07-05 02:27:00,
2013-07-04 20:32:00,77.7,48.6,29.55,WSW,245,0.5,1.0,36,0.00,BKN,BKN,0.00,0.0,WeatherDisplay:10.37,2013-07-05 02:32:00,
2013-07-04 20:37:00,77.6,48.5,29.55,WSW,245,0.4,3.4,36,0.00,BKN,BKN,0.00,0.0,WeatherDisplay:10.37,2013-07-05 02:37:00,
2013-07-04 20:42:00,77.5,49.2,29.55,WSW,246,0.7,3.0,37,0.00,BKN,BKN,0.00,0.0,WeatherDisplay:10.37,2013-07-05 02:42:00,
2013-07-04 20:47:00,77.3,49.0,29.56,SSW,202,0.6,3.0,37,0.00,BKN,BKN,0.00,0.0,WeatherDisplay:10.37,2013-07-05 02:47:00,
2013-07-04 20:52:00,77.2,48.9,29.56,SSW,200,0.1,2.3,37,0.00,BKN,BKN,0.00,0.0,WeatherDisplay:10.37,2013-07-05 02:52:00,
2013-07-04 20:57:00,77.1,48.8,29.56,SSW,202,0.3,3.4,37,0.00,BKN,BKN,0.00,0.0,WeatherDisplay:10.37,2013-07-05 02:57:00,
2013-07-04 21:02:00,77.0,49.4,29.56,SSW,206,0.0,1.1,38,0.00,BKN,BKN,0.00,0.0,WeatherDisplay:10.37,2013-07-05 03:02:00,
2013-07-04 21:07:00,76.9,48.6,29.53,SSW,207,1.1,3.4,37,0.00,BKN,BKN,0.00,0.0,WeatherDisplay:10.37,2013-07-05 03:07:00,
2013-07-04 21:12:00,76.9,49.4,29.53,SSW,200,1.6,4.0,38,0.00,BKN,BKN,0.00,0.0,WeatherDisplay:10.37,2013-07-05 03:12:00,
2013-07-04 21:17:00,76.8,49.3,29.53,SSW,213,1.4,3.4,38,0.00,BKN,BKN,0.00,0.0,WeatherDisplay:10.37,2013-07-05 03:17:00,
2013-07-04 21:22:00,76.7,49.2,29.53,SSW,213,0.0,0.0,38,0.00,BKN,BKN,0.00,0.0,WeatherDisplay:10.37,2013-07-05 03:22:00,
2013-07-04 21:27:00,76.7,49.2,29.53,SSW,210,0.5,2.3,38,0.00,BKN,BKN,0.00,0.0,WeatherDisplay:10.37,2013-07-05 03:27:00,
2013-07-04 21:32:00,76.6,49.1,29.53,SSW,210,0.0,0.0,38,0.00,BKN,BKN,0.00,0.0,WeatherDisplay:10.37,2013-07-05 03:32:00,
2013-07-04 21:37:00,76.5,49.0,29.53,SSW,210,0.5,1.1,38,0.00,BKN,BKN,0.00,0.0,WeatherDisplay:10.37,2013-07-05 03:37:00,
2013-07-04 21:42:00,76.4,48.9,29.53,SSW,210,0.0,0.0,38,0.00,BKN,BKN,0.00,0.0,WeatherDisplay:10.37,2013-07-05 03:42:00,
2013-07-04 21:47:00,76.4,48.9,29.54,SSW,210,0.0,0.0,38,0.00,BKN,BKN,0.00,0.0,WeatherDisplay:10.37,2013-07-05 03:47:00,
2013-07-04 21:52:00,76.2,49.4,29.54,SSW,210,0.0,1.1,39,0.00,BKN,BKN,0.00,0.0,WeatherDisplay:10.37,2013-07-05 03:52:00,
2013-07-04 21:57:00,76.1,49.3,29.55,SSW,210,0.0,1.1,39,0.00,BKN,BKN,0.00,0.0,WeatherDisplay:10.37,2013-07-05 03:57:00,
2013-07-04 22:01:00,76.0,49.2,29.55,SSW,210,0.0,0.0,39,0.00,BKN,BKN,0.00,0.0,WeatherDisplay:10.37,2013-07-05 04:01:00,
2013-07-04 22:06:00,75.8,49.1,29.52,SSW,210,0.4,2.3,39,0.00,BKN,BKN,0.00,0.0,WeatherDisplay:10.37,2013-07-05 04:06:00,
2013-07-04 22:11:00,75.6,48.9,29.52,SSW,211,0.0,3.4,39,0.00,BKN,BKN,0.00,0.0,WeatherDisplay:10.37,2013-07-05 04:11:00,
2013-07-04 22:16:00,75.5,49.5,29.52,SSW,211,0.0,1.1,40,0.00,BKN,BKN,0.00,0.0,WeatherDisplay:10.37,2013-07-05 04:16:00,
2013-07-04 22:21:00,75.4,49.4,29.52,SSW,211,0.0,0.0,40,0.00,BKN,BKN,0.00,0.0,WeatherDisplay:10.37,2013-07-05 04:21:00,
2013-07-04 22:26:00,75.3,49.3,29.52,SSW,211,0.0,0.0,40,0.00,BKN,BKN,0.00,0.0,WeatherDisplay:10.37,2013-07-05 04:26:00,
2013-07-04 22:31:00,75.2,49.2,29.52,SSW,211,0.0,1.1,40,0.00,BKN,BKN,0.00,0.0,WeatherDisplay:10.37,2013-07-05 04:31:00,
2013-07-04 22:36:00,75.1,49.1,29.51,SSW,211,0.0,0.0,40,0.00,BKN,BKN,0.00,0.0,WeatherDisplay:10.37,2013-07-05 04:36:00,
2013-07-04 22:41:00,75.0,49.0,29.51,SSW,210,0.0,0.0,40,0.00,BKN,BKN,0.00,0.0,WeatherDisplay:10.37,2013-07-05 04:41:00,
2013-07-04 22:46:00,74.8,49.5,29.51,SSW,211,1.2,2.3,41,0.00,BKN,BKN,0.00,0.0,WeatherDisplay:10.37,2013-07-05 04:46:00,
2013-07-04 22:51:00,74.7,49.4,29.51,SSW,211,0.0,0.0,41,0.00,BKN,BKN,0.00,0.0,WeatherDisplay:10.37,2013-07-05 04:51:00,
2013-07-04 22:56:00,74.5,49.2,29.51,SSW,210,0.1,1.1,41,0.00,BKN,BKN,0.00,0.0,WeatherDisplay:10.37,2013-07-05 04:56:00,
2013-07-04 23:01:00,74.2,49.0,29.52,SSW,211,0.2,0.0,41,0.00,BKN,BKN,0.00,0.0,WeatherDisplay:10.37,2013-07-05 05:01:00,
2013-07-04 23:06:00,74.1,48.9,29.51,SSW,211,0.8,2.3,41,0.00,BKN,BKN,0.00,0.0,WeatherDisplay:10.37,2013-07-05 05:06:00,
2013-07-04 23:11:00,73.9,49.4,29.50,SSW,211,0.0,0.0,42,0.00,BKN,BKN,0.00,0.0,WeatherDisplay:10.37,2013-07-05 05:11:00,
2013-07-04 23:16:00,73.7,49.2,29.51,SSW,210,0.2,1.1,42,0.00,BKN,BKN,0.00,0.0,WeatherDisplay:10.37,2013-07-05 05:16:00,
2013-07-04 23:21:00,73.5,48.4,29.51,SSW,210,0.9,3.4,41,0.00,BKN,BKN,0.00,0.0,WeatherDisplay:10.37,2013-07-05 05:21:00,
2013-07-04 23:26:00,73.2,48.7,29.51,SSW,210,0.0,1.1,42,0.00,BKN,BKN,0.00,0.0,WeatherDisplay:10.37,2013-07-05 05:26:00,
2013-07-04 23:31:00,72.9,48.5,29.51,SSW,210,1.1,3.4,42,0.00,BKN,BKN,0.00,0.0,WeatherDisplay:10.37,2013-07-05 05:31:00,
2013-07-04 23:36:00,72.8,48.4,29.51,SSW,211,0.0,0.0,42,0.00,BKN,BKN,0.00,0.0,WeatherDisplay:10.37,2013-07-05 05:36:00,
2013-07-04 23:41:00,72.6,48.8,29.50,SSW,210,0.2,1.1,43,0.00,BKN,BKN,0.00,0.0,WeatherDisplay:10.37,2013-07-05 05:41:00,
2013-07-04 23:46:00,72.4,48.6,29.51,SSW,210,0.0,0.0,43,0.00,BKN,BKN,0.00,0.0,WeatherDisplay:10.37,2013-07-05 05:46:00,
2013-07-04 23:51:00,72.3,49.2,29.52,SSW,210,0.0,0.0,44,0.00,BKN,BKN,0.00,0.0,WeatherDisplay:10.37,2013-07-05 05:51:00,
2013-07-04 23:56:00,72.1,49.0,29.52,SSW,210,0.0,2.3,44,0.00,BKN,BKN,0.00,0.0,WeatherDisplay:10.37,2013-07-05 05:56:00,